STARLINK-1871 (47157 NORAD) Tracking and Keplerian Element Data

This shows tracking and keplerian element data for the satellite.

Feedback or suggestion? Click here.




ElementValue
Catalog47157
NameSTARLINK-1871
Epoch Orbit182
Epoch Day20.91667824
Epoch Year2021
RAAN75.4449
Inclination53.0561
Eccentricity0.0001322
Argument of Perigee75.6114
Mean Anonmoly86.9959
Mean Motion15.43912577
Decay Rate-0.01088546
L11 47157U 20088AM 21020.91667824 -.01088546 00000-0 -25681-1 0 9997
L22 47157 53.0561 75.4449 0001322 75.6114 86.9959 15.43912577 1822

Live tracking and technical data element details for STARLINK-1871 (NORAD 47157). STARLINK-1871 can be tracked NOW for your location showing map with azimuth and elevation plus other details from your city location.

Track the satellite on the map from your city or location and see movement details for azimuth, elevation, latitude, longitude, range, height, and movement on the map or in text.







IsCatalogInMostPopularTable: catalog: 47157, numindb: 25
Update: records affected: 1



GetName: 47157 STARLINK-1871

Hit Count: updated at: Sat, 23 Jan 2021 18:48:32 GMT